Regional Weather Roundup
Issued by NWS Upton, NY

Current Version | Previous Version | Graphics & Text | Print | Product List | Glossary Off
Versions: 1 2 3 4 5 6 7 8 9 10 11 12 13 14 15 16 17 18 19 20 21 22 23 24 25 26 27

000
ASUS41 KOKX 052008
RWROKX

REGIONAL WEATHER ROUNDUP
NATIONAL WEATHER SERVICE NEW YORK NY
300 PM EST MON DEC 05 2016

NOTE: "FAIR" INDICATES FEW OR NO CLOUDS BELOW 12,000 FEET WITH NO
SIGNIFICANT WEATHER AND/OR OBSTRUCTIONS TO VISIBILITY.

NYZ071-072-176-178-NJZ106-104-052100-
NEW YORK CITY METRO AREA

CITY           SKY/WX    TMP DP  RH WIND       PRES   REMARKS
Central Park   MOSUNNY   48  33  56 NW10      30.00R
Wall St Helipt CLEAR     53  35  50 W9        29.98S
Bronx Bot Gard   N/A     48  32  53 W13       29.99R
LaGuardia APRT MOSUNNY   50  34  54 NW12      29.97R
Kennedy INTL   MOSUNNY   50  33  52 NW16      29.98R
Breezy Point     N/A     46 N/A N/A NW9         N/A
Newark/Liberty MOSUNNY   50  33  52 W12       29.98R
Teterboro      MOSUNNY   49  32  52 NW8       29.97R
$$

NYZ177-179-078>081-052100-
LONG ISLAND NEW YORK

CITY           SKY/WX    TMP DP  RH WIND       PRES   REMARKS
Jones Beach      N/A     48 N/A N/A NW14G20     N/A
Matinecock PT    N/A     50 N/A N/A W18         N/A
Farmingdale    SUNNY     50  35  56 NW12      29.96R
MacArthur/ISP  MOSUNNY   49  35  58 NW13G23   29.96R
Shirley        MOSUNNY   46  37  71 NW12      29.96R
Westhampton    MOSUNNY   46  36  68 NW10      29.97R
Southampton    NOT AVBL
Bridgehampton  NOT AVBL
East Hampton   CLOUDY    45  37  74 NW7       29.95R
Montauk          N/A     46  38  73 W9        29.96R
$$

NYZ052-065-067-052100-
HUDSON VALLEY

CITY           SKY/WX    TMP DP  RH WIND       PRES   REMARKS
White Plains   PTSUNNY   47  30  51 W16G24    29.95R
Newburgh       NOT AVBL
Montgomery     CLOUDY    45  37  73 CALM      29.96R
Poughkeepsie   CLOUDY    44  35  70 SW10      29.96R
Albany         CLOUDY    42  32  67 W8        29.94R
$$

NJZ001-105-106-008-010-013-015-019>022-104-052100-
NEW JERSEY

CITY           SKY/WX    TMP DP  RH WIND       PRES   REMARKS
Newark/Liberty MOSUNNY   50  33  52 W12       29.98R
Teterboro      MOSUNNY   49  32  52 NW8       29.97R
Caldwell       PTSUNNY   48  34  58 W8        29.98R
Somerville     SUNNY     48  33  56 NW9G18    29.98R
Linden           N/A     48  33  56 NW10G17   29.99R
Sussex         PTSUNNY   45  36  70 SW6       29.96R
Andover          N/A     43  35  73 VRB5      29.98R
Trenton        SUNNY     47  33  58 N12       30.00R
Millville      SUNNY     50  39  66 N10       30.01R
Atlantic City  MOSUNNY   50  38  63 NW9       30.00R
Wrightstown    CLOUDY    48  37  66 NW10      29.97R
Toms River     MOSUNNY   47  38  71 NW9       29.99S
Belmar         PTSUNNY   50  35  56 NW13      29.99R
$$

PAZ047>061-062-071-052100-
EASTERN PENNSYLVANIA

CITY           SKY/WX    TMP DP  RH WIND       PRES   REMARKS
Philadelphia   PTSUNNY   50  34  54 NW13      30.01S
Allentown      MOSUNNY   47  34  60 NW12      29.99R
Scranton       CLOUDY    45  35  68 W6        29.97R
$$

CTZ002-004>006-009-010-012-RIZ004-006-007-MAZ004-011-015-052100-
SOUTHERN NEW ENGLAND
 IN CT

CITY           SKY/WX    TMP DP  RH WIND       PRES   REMARKS
Bradley INTL   MOSUNNY   43  33  68 NW3       29.94R
Hartford       SUNNY     44  36  73 VRB3      29.94R
Danbury        MOSUNNY   46  31  55 W9G20     29.96R
Wtrbury/Oxford MOSUNNY   43  30  61 NW8G17    29.95R
Bridgeport     MOSUNNY   50  33  52 NW12      29.95R
Meriden        SUNNY     47  33  58 W16       29.94R
New Haven      SUNNY     47  35  63 NW9G17    29.94S
Chester          N/A     45  36  70 VRB3      29.93R
Groton         MOSUNNY   48  38  68 NW9       29.94R
Wilimantic     SUNNY     44  35  70 W6        29.94R

 IN RI

CITY           SKY/WX    TMP DP  RH WIND       PRES   REMARKS
Providence     MOSUNNY   42  36  79 W12G21    29.93R
Block Island   PTSUNNY   44  38  79 NW13G18   29.94R
Westerly       SUNNY     44  34  67 W6        29.95R
 IN MA

CITY           SKY/WX    TMP DP  RH WIND       PRES   REMARKS
Boston         MOCLDY    40  36  86 W12       29.93R WCI  33
Worcester      MOSUNNY   35  31  85 W14       29.89R WCI  26
Westfield      LGT RAIN  35  33  92 CALM      29.93R
Provincetown   LGT RAIN  42  40  92 S6        29.91F
Nantucket      CLOUDY    47  44  90 S13       29.89F
$$

ANZ330-335-338-340-345-350-353-355-052100-
COASTAL MARINE OBSERVATIONS


STATION/POSITION TIME  SKY/WX   TEMP    WIND        PRES    VSBY  WAVE
                                AIR SEA DIR/SP/G                  HT/PER
                 (UTC)          (F)     (DEG/KT/KT) (MB)    (MI)  (FT/S)
NY HARB ENTRANCE 1850            48 53  290/ 19/ 23 1014.0          3/ 3
20 S FIRE ISLAND 1850            48 54  290/ 14/ 17 1013.9          3/ 5
GREAT SOUTH BAY  1845            48 44                N/A
23 SSW MONTAUK P 1950            47 54  280/ 14/ 16 1014.4          3/ 5
15 E BARNEGAT LI 1930               54                N/A           2/ 5
HUDSON CANYON    1850            51 58              1013.9          4/ 4
KINGS POINT      1942            48 48              1014.5
EXECUTION ROCKS  1945            50     300/ 12/ 17   N/A
CENTRAL LI SOUND 1930            47 51  290/ 14/ 16   N/A           1
EASTERN LI SOUND NOT AVBL
ROBBINS REEF     1942            47     290/ 14/ 17 1015.2
$$


>>>>>>>>>>>>>>>>>>>>>>>>>>>> KEY <<<<<<<<<<<<<<<<<<<<<<<<<<<
>                                                          <
>     SKY/WX - Sky Condition/Present Weather               <
>     TMP    - Temperature in Fahrenheit                   <
>     DP     - Dew Point in Fahrenheit                     <
>     RH     - Relative Humidity in Percent                <
>     WIND   - Direction (from) and Speed in MPH           <
>     PRES   - Mean Sea Level Pressure (inches of Hg)      <
>     WCI    - Wind Chill Index                            <
>     VSB    - VISIBILITY IN MILES                         <
>     HX     - HEAT INDEX                                  <
>     TC     - TEMPERATURE IN CELSIUS                      <
>     VRB    - VARIABLE WIND DIRECTION                     <
>                                                          <
>>>>>>>>>>>>>>>>>>>>>>>>>>>> KEY <<<<<<<<<<<<<<<<<<<<<<<<<<<




USA.gov is the U.S. government's official web portal to all federal, state and local government web resources and services.